Weather in Massandra

Russia / Republic of Crimea     44°30′52″N   34°11′09″E
temp.,
°C
wind,
m/s
gust,
m/s
humid.,
%
clouds,
%
prec.,
mm/h
press.,
hPa
HPBL,
m
4 march, thu
thu400:00+4nnw336422 0.0 1028108
03:00+4nw225613 0.0 1028119
06:00+4nw11570 0.0 1027162
09:00+5sse22610 0.0 1027744
12:00+6sw54610 0.0 1025649
15:00+7sw88630 0.0 1023552
18:00+5wsw78700 0.0 1021459
21:00+4wsw78779 0.0 1021505
5 march, fri
fri500:00+4wsw788125 0.0 1020489
03:00+4wsw788018 0.0 1019406
06:00+5wsw677319 0.0 1017352
09:00+6sw67749 0.0 1017423
12:00+8sw69690 0.0 1016571
15:00+9sw79740 0.0 1015424
18:00+8wsw78730 0.0 1014243
21:00+7wsw687917 0.0 1016219
6 march, sat
sat600:00+8wsw677463 0.0 1015180
03:00+8wsw577142 0.0 1015123
06:00+8w457292 0.0 101473
09:00+9w457174 0.0 101694
12:00+10nnw457180 0.0 1017171
15:00+7nw457890 0.0 1019338
18:00+4nnw6772100 0.5 1021466
21:00+3nnw5750100 0.6 1025730
7 march, sun
sun700:00+1nnw565246 0.0 1028650
03:000nnw554723 0.0 1029488
06:000nnw44450 0.0 1029471
09:00+1nw33390 0.0 1030847
12:00+3ssw33390 0.0 10291188
15:00+4wsw444511 0.0 10271529
18:00+3nw335036 0.0 10261108
21:00+1wnw335822 0.0 1025385
8 march, mon
mon800:00+1wnw33550 0.0 1024441
03:00+1wnw33530 0.0 1022529
06:00+1w34580 0.0 1021670
09:00+2wsw45580 0.0 1020991
12:00+3sw655626 0.0 10201032
15:00+4sw665825 0.0 1019836
18:00+4wsw556335 0.0 1017453
21:00+3w346668 0.0 1017502